SCP
0 0 0 0 0 0 0 0 0 0 0 0 0 0 0 0 0 0 0 0 0 0 0 0 0 0 0 0 0 0 0 1 1 1 1 1 1 1 1 1 1 1 0
0 0 0 0 0 0 0 0 0 0 0 0 0 0 0 0 0 0 0 0 0 0 0 0 0 0 0 0 0 0 0 0 1 1 1 1 1 0 1 1 1 1 0
0 0 0 0 0 0 0 0 -0 0 0 0 0 0 0 0 0 0 0 0 0 0 0 0 0 0 0 0 0 0 0 0 0 1 1 1 1 0 0 1 1 1 0
0 0 0 0 0 0 0 0 0 0 0 0 0 0 0 0 0 0 0 0 0 0 0 0 0 0 0 0 0 0 0 0 0 0 0 1 1 1 1 1 1 1 0
0 0 0 0 0 0 0 0 0 0 0 0 0 0 0 0 0 0 0 0 0 0 0 0 0 0 0 0 0 0 0 0 0 0 0 0 1 1 1 1 1 1 0
0 0 0 0 0 0 0 0 0 0 0 0 0 0 0 0 0 0 0 0 0 0 0 0 0 0 0 0 0 0 0 0 0 0 0 0 0 1 1 1 1 1 1
0 0 0 0 0 0 0 0 0 0 0 0 -0 -0 0 0 0 0 -0 0 0 0 0 0 0 0 0 0 0 0 0 0 0 0 0 0 0 0 1 1 1 1 1
0 0 0 0 0 0 0 0 0 0 0 0 -0 -0 -0 -0 0 0 0 0 0 0 0 0 0 0 0 -0 -0 0 0 0 0 0 0 0 0 0 0 1 1 1 1
0 0 0 0 0 0 0 0 0 0 0 0 0 0 -0 0 0 -0 0 0 0 0 0 0 0 0 0 -0 -0 -0 -0 -0 -0 0 0 0 0 0 0 0 1 1 1
0 0 0 0 0 0 0 0 0 0 0 0 0 0 0 0 0 0 -0 0 0 0 0 0 0 -0 -0 0 0 0 -0 -0 -0 -0 -0 -0 0 0 0 0 1 1 1
0 0 0 0 0 0 0 0 0 0 0 0 0 0 0 0 0 0 0 0 0 0 0 0 0 0 0 -0 -0 -0 -0 -0 -0 0 0 -0 -0 0 0 0 0 1 1
0 0 0 0 0 0 0 0 0 0 0 0 0 0 0 0 0 0 0 0 0 0 0 0 0 0 -0 -0 -0 -0 -0 -0 -0 0 0 0 -0 0 0 0 0 0 1
0 0 0 0 0 0 0 0 0 0 0 0 0 0 0 0 0 0 0 0 0 0 0 0 0 0 0 -0 -0 -0 -0 -0 -0 -0 0 0 0 -0 -0 0 0 0 0
0 0 0 0 0 0 0 0 0 0 0 0 0 0 0 0 0 0 0 0 0 0 0 0 0 0 0 0 0 -0 -0 -0 -0 -0 0 0 0 0 0 0 0 0 0
0 0 0 0 0 0 0 0 0 0 0 0 0 0 0 0 0 0 0 0 0 0 0 0 0 0 0 0 0 0 0 0 0 0 0 0 0 0 0 0 0 0 0
0 0 0 0 0 0 0 0 0 0 0 0 0 0 0 0 0 0 0 0 0 0 0 0 0 0 0 0 0 0 0 0 0 0 0 0 0 0 0 0 0 0 0
0 0 0 0 0 0 0 0 0 0 0 0 0 0 0 0 0 0 0 0 0 0 0 0 0 0 0 0 0 0 0 0 0 0 0 0 0 0 0 0 0 0 0
0 0 0 0 0 0 0 0 0 0 0 0 0 0 0 0 0 0 0 0 0 0 0 0 0 0 0 0 0 0 0 0 0 0 0 0 0 0 0 0 0 0 0
0 0 0 0 0 0 0 0 0 0 0 0 0 0 0 0 0 0 0 0 0 0 0 0 0 0 0 0 0 0 0 0 0 0 0 0 0 0 0 0 0 0 0
0 0 0 0 0 0 0 0 0 0 0 0 0 0 0 0 0 0 0 0 0 0 0 0 0 0 0 0 0 0 0 0 0 0 0 0 0 0 0 0 0 0 -0
0 0 0 0 0 0 0 0 0 0 0 0 0 0 0 0 0 0 0 0 0 0 0 0 0 0 0 0 0 0 0 0 0 0 0 0 0 0 0 0 0 0 0
0 0 0 0 0 0 0 0 0 0 0 0 0 0 0 0 0 0 0 0 0 0 0 0 0 0 0 0 0 0 0 0 0 0 0 0 0 0 0 0 0 -0 0
0 0 0 0 0 0 0 0 0 0 0 0 0 0 0 0 0 0 0 0 0 0 0 0 0 0 0 0 0 0 0 0 0 0 -0 0 0 0 -0 0 0 0 0
0 0 0 0 0 0 0 0 0 0 0 0 0 0 0 0 0 0 0 0 0 0 0 0 0 0 0 0 0 0 0 0 0 0 -0 -0 0 0 0 -0 0 0 0
0 0 0 0 0 0 0 0 0 0 0 0 0 0 0 0 0 0 0 0 0 0 0 0 0 0 0 0 0 0 0 0 0 0 0 0 -0 -0 -0 0 0 0 0
0 0 0 0 0 0 0 0 0 0 0 0 0 0 0 0 0 0 0 0 0 0 0 0 0 0 0 0 0 0 0 0 0 0 0 0 0 -0 0 0 0 0 0
Wind_Speed_500mb
24 25 25 25 27 32 37 38 37 36 34 33 34 36 36 38 42 44 43 40 44 45 45 45 43 43 44 47 53 59 62 60 55 63 64 62 62 62 63 67 72 73 71
25 25 24 25 29 33 37 40 43 43 43 43 42 42 43 43 41 43 46 47 48 47 48 48 47 46 44 45 47 52 61 66 64 58 64 68 67 67 67 68 76 80 76
26 24 24 27 30 33 38 43 45 45 46 47 46 46 47 46 46 44 46 48 45 45 48 49 50 51 50 48 48 50 53 63 69 69 64 65 71 72 73 71 72 91 80
27 25 25 28 30 34 39 43 45 46 47 51 54 54 56 57 57 57 50 40 35 36 39 40 41 43 44 46 49 52 54 57 66 75 73 70 71 74 76 76 75 92 95
29 28 28 30 31 34 37 40 42 45 49 52 56 59 60 62 60 46 42 44 36 28 23 29 48 55 52 49 49 49 53 58 62 69 79 77 73 75 79 78 79 84 90
36 32 31 31 32 34 36 40 42 41 46 54 61 62 63 61 63 49 37 29 38 48 49 56 49 49 63 62 51 48 50 52 60 65 71 82 81 79 79 81 82 89 95
40 35 34 33 33 34 37 39 41 42 44 53 65 73 67 70 36 33 50 58 53 54 56 46 58 55 50 68 70 71 69 61 58 59 56 70 81 82 84 81 82 91 106
42 38 37 36 34 34 37 39 42 42 42 46 55 59 42 60 19 70 43 54 56 43 52 58 62 77 71 81 88 83 79 61 61 67 68 73 67 86 87 89 85 90 99
49 43 40 37 36 36 37 40 42 41 40 42 42 40 23 20 76 22 79 40 37 47 67 74 81 89 86 85 90 97 100 100 97 93 95 82 82 85 89 91 96 92 101
53 45 41 38 38 37 39 41 42 39 39 44 46 43 47 53 35 53 58 42 76 77 87 94 92 95 95 108 105 104 102 101 101 93 84 95 91 93 93 90 95 100 100
54 48 42 41 39 39 41 43 41 38 38 45 46 48 54 54 54 62 97 74 90 100 99 104 105 114 113 111 110 111 110 106 104 105 107 98 86 96 98 102 99 100 107
58 52 46 43 41 42 44 43 43 41 41 46 51 53 56 58 58 56 78 112 116 120 112 119 117 113 111 109 117 117 118 118 111 106 109 112 115 120 108 111 114 102 105
62 55 50 46 44 44 44 44 46 46 46 50 54 58 61 64 65 68 75 99 106 129 130 117 106 111 119 120 119 119 123 118 108 109 109 112 116 108 104 107 124 121 104
61 56 52 48 46 45 46 48 49 50 50 55 60 65 67 68 68 70 75 80 104 122 134 125 116 117 114 117 127 127 128 119 109 92 86 90 103 101 110 103 120 132 120
65 59 54 50 47 47 48 50 52 53 55 60 66 68 71 72 71 73 75 76 68 86 131 148 119 120 125 126 128 125 121 117 110 107 103 98 88 103 109 113 120 134 136
67 60 54 51 48 48 50 52 54 54 59 64 67 71 72 70 72 77 80 82 76 79 98 135 147 135 133 122 122 104 110 115 112 109 104 105 109 114 113 105 111 121 140
66 58 53 49 50 49 51 54 55 56 61 64 66 69 71 70 76 81 83 86 84 77 91 133 134 143 132 123 110 104 116 117 113 107 100 95 101 106 114 105 104 102 119
64 57 52 50 49 50 51 53 55 56 61 65 67 68 71 75 81 84 86 86 85 84 88 99 126 132 121 114 110 106 115 113 107 99 95 94 100 110 90 100 109 113 116
62 57 52 50 49 51 51 53 53 58 62 63 67 70 76 78 84 86 85 86 87 87 88 97 111 115 115 107 108 112 109 104 106 95 78 79 82 99 80 94 104 100 117
61 55 51 49 48 48 51 49 53 59 62 66 69 74 78 80 83 81 82 86 90 90 92 96 104 108 103 102 98 100 103 97 93 88 83 84 76 89 69 82 102 100 102
59 53 49 47 46 48 47 46 53 59 64 69 73 77 77 77 73 69 78 88 91 97 94 96 103 101 98 95 93 92 97 94 104 95 92 77 79 80 70 76 91 97 100
58 52 48 46 45 45 41 46 52 59 63 68 74 76 76 77 81 70 73 79 81 92 103 101 104 100 99 94 97 101 98 90 95 90 67 71 70 79 86 60 68 83 99
55 50 46 44 43 37 40 47 52 57 60 65 69 72 78 81 82 86 90 88 92 90 91 103 115 108 108 97 89 93 89 80 88 107 81 100 79 79 84 82 70 74 85
52 46 46 41 35 34 41 47 49 51 57 61 64 72 78 84 85 78 89 97 100 96 93 96 103 112 113 108 100 99 100 111 111 104 89 88 102 79 86 83 72 72 77
49 48 42 36 33 35 40 42 43 49 55 61 67 69 74 88 75 75 85 97 108 107 99 90 93 98 100 100 98 100 96 97 101 89 86 80 95 81 79 94 89 71 84
51 44 39 34 33 34 33 33 35 44 55 65 70 78 78 67 71 81 87 93 102 95 97 105 98 108 108 97 85 98 87 94 92 83 83 89 75 66 67 53 38 58 71
Wind_Direction_500mb
268 278 285 294 307 317 326 330 330 327 323 323 324 322 318 316 314 314 309 302 298 297 296 293 290 286 281 278 269 261 255 256 261 258 255 252 249 249 252 249 246 242 242
265 274 284 297 308 318 325 329 331 331 331 330 331 328 326 323 318 315 311 308 303 299 294 291 288 284 281 277 273 267 260 252 252 259 258 253 252 249 249 251 250 245 238
263 272 285 297 309 319 328 333 333 332 331 330 329 327 325 322 320 317 312 306 302 299 294 290 286 284 281 276 273 269 263 258 250 249 254 256 253 252 249 249 250 249 242
256 268 281 296 310 322 331 333 331 328 328 328 328 328 327 326 325 320 311 306 301 294 289 289 293 295 293 285 275 270 267 261 253 250 250 251 255 253 251 248 246 245 249
259 270 283 296 310 321 326 325 323 325 327 326 324 325 326 326 326 324 321 310 306 306 306 304 301 297 295 293 291 284 270 263 262 255 249 249 251 254 252 250 248 249 236
253 265 279 293 304 313 314 318 320 321 324 326 325 325 327 331 330 320 324 322 326 314 308 310 312 314 310 310 305 298 297 276 264 264 254 250 251 251 255 250 247 244 247
250 262 273 283 292 299 308 314 312 317 326 327 328 328 330 338 335 344 330 319 313 311 300 303 302 305 307 305 301 302 301 295 287 269 268 261 251 250 253 252 248 246 244
249 259 269 278 286 295 303 307 306 316 324 330 328 331 332 335 301 317 310 309 295 293 295 300 299 299 302 301 302 302 305 300 295 285 273 264 255 248 248 250 249 247 245
245 254 265 274 283 290 298 302 305 309 316 324 320 319 324 301 313 315 316 320 297 295 299 296 298 302 303 304 306 304 304 301 299 296 290 270 267 258 244 246 249 245 246
243 249 258 269 277 286 291 294 297 303 306 312 313 313 308 306 314 313 326 296 300 302 302 301 301 302 304 306 306 303 303 301 298 295 289 289 276 265 258 243 245 245 244
241 247 257 266 274 281 285 288 292 298 300 301 302 307 303 296 295 293 303 302 301 304 302 302 299 301 303 306 305 305 304 298 293 288 284 281 279 275 261 253 241 244 242
240 247 256 263 270 274 278 284 290 295 296 296 302 302 295 292 293 289 290 301 303 305 302 302 302 303 304 304 303 302 301 297 292 285 280 277 274 273 268 258 248 240 242
239 246 254 261 266 270 277 284 288 291 294 297 298 296 292 290 291 289 286 291 295 301 301 299 302 300 302 303 302 301 299 298 296 290 280 273 270 274 273 259 253 245 238
242 246 253 261 267 272 277 281 285 291 294 297 296 297 295 293 292 288 286 290 295 296 299 299 300 300 301 300 299 299 296 296 291 283 271 273 266 261 264 255 251 249 241
239 244 251 258 263 268 275 280 286 291 295 298 298 296 295 296 293 290 286 282 271 285 295 298 297 298 298 298 297 297 297 290 289 282 276 264 258 256 256 261 251 248 245
237 243 250 256 262 267 273 279 286 293 296 296 298 297 295 297 294 291 287 283 272 265 274 293 297 294 296 294 292 292 290 291 288 285 277 265 261 255 253 252 256 254 244
236 242 249 255 261 268 275 281 288 293 295 296 297 296 296 299 297 294 291 287 276 265 261 282 287 296 293 292 291 289 291 292 291 287 279 272 260 258 253 252 251 253 247
235 241 248 255 263 270 277 284 289 294 294 295 296 295 299 300 298 297 295 286 277 269 266 268 281 285 285 288 288 288 290 291 292 286 278 275 262 252 257 248 248 251 247
233 240 247 253 261 270 278 284 290 292 293 295 298 300 303 302 302 301 292 284 278 276 273 272 274 278 280 282 284 288 288 290 294 292 278 284 264 250 261 251 247 251 250
232 239 247 255 263 271 279 285 290 293 296 299 300 302 305 304 303 299 293 287 285 281 279 276 276 278 277 278 277 279 282 287 293 293 286 280 256 271 270 259 250 243 238
231 239 246 255 265 273 279 289 293 296 297 301 304 306 306 306 302 291 289 288 288 285 281 279 279 280 277 277 272 276 276 280 283 291 287 281 276 275 268 268 247 243 234
230 237 245 255 264 271 285 291 294 294 298 303 306 309 311 312 313 298 292 287 284 285 284 282 280 279 279 276 275 273 271 273 279 289 287 289 270 265 266 266 260 237 230
231 238 247 255 263 277 287 289 292 293 301 307 310 314 319 319 314 305 304 297 292 287 281 281 279 276 278 277 274 274 277 272 273 285 286 287 278 288 270 275 267 247 238
231 240 247 254 266 278 282 287 294 300 305 308 318 323 322 318 311 306 304 300 298 296 291 285 280 279 273 274 273 271 273 271 273 277 276 275 274 277 283 280 270 246 229
231 239 246 255 267 275 283 292 300 305 310 321 324 323 317 310 313 311 308 304 302 298 298 290 283 279 275 271 268 268 263 265 263 266 276 272 272 276 282 285 278 248 230
230 236 244 255 267 277 284 297 309 315 319 323 323 318 321 314 317 316 309 305 304 302 302 304 297 290 279 273 265 258 267 262 258 265 265 266 279 269 279 284 276 244 224
Wind_Speed_850mb
24 25 25 25 27 32 37 38 37 36 34 33 34 36 36 38 42 44 43 40 44 45 45 45 43 43 44 47 53 59 62 60 55 63 64 62 62 62 63 67 72 73 71
25 25 24 25 29 33 37 40 43 43 43 43 42 42 43 43 41 43 46 47 48 47 48 48 47 46 44 45 47 52 61 66 64 58 64 68 67 67 67 68 76 80 76
26 24 24 27 30 33 38 43 45 45 46 47 46 46 47 46 46 44 46 48 45 45 48 49 50 51 50 48 48 50 53 63 69 69 64 65 71 72 73 71 72 91 80
27 25 25 28 30 34 39 43 45 46 47 51 54 54 56 57 57 57 50 40 35 36 39 40 41 43 44 46 49 52 54 57 66 75 73 70 71 74 76 76 75 92 95
29 28 28 30 31 34 37 40 42 45 49 52 56 59 60 62 60 46 42 44 36 28 23 29 48 55 52 49 49 49 53 58 62 69 79 77 73 75 79 78 79 84 90
36 32 31 31 32 34 36 40 42 41 46 54 61 62 63 61 63 49 37 29 38 48 49 56 49 49 63 62 51 48 50 52 60 65 71 82 81 79 79 81 82 89 95
40 35 34 33 33 34 37 39 41 42 44 53 65 73 67 70 36 33 50 58 53 54 56 46 58 55 50 68 70 71 69 61 58 59 56 70 81 82 84 81 82 91 106
42 38 37 36 34 34 37 39 42 42 42 46 55 59 42 60 19 70 43 54 56 43 52 58 62 77 71 81 88 83 79 61 61 67 68 73 67 86 87 89 85 90 99
49 43 40 37 36 36 37 40 42 41 40 42 42 40 23 20 76 22 79 40 37 47 67 74 81 89 86 85 90 97 100 100 97 93 95 82 82 85 89 91 96 92 101
53 45 41 38 38 37 39 41 42 39 39 44 46 43 47 53 35 53 58 42 76 77 87 94 92 95 95 108 105 104 102 101 101 93 84 95 91 93 93 90 95 100 100
54 48 42 41 39 39 41 43 41 38 38 45 46 48 54 54 54 62 97 74 90 100 99 104 105 114 113 111 110 111 110 106 104 105 107 98 86 96 98 102 99 100 107
58 52 46 43 41 42 44 43 43 41 41 46 51 53 56 58 58 56 78 112 116 120 112 119 117 113 111 109 117 117 118 118 111 106 109 112 115 120 108 111 114 102 105
62 55 50 46 44 44 44 44 46 46 46 50 54 58 61 64 65 68 75 99 106 129 130 117 106 111 119 120 119 119 123 118 108 109 109 112 116 108 104 107 124 121 104
61 56 52 48 46 45 46 48 49 50 50 55 60 65 67 68 68 70 75 80 104 122 134 125 116 117 114 117 127 127 128 119 109 92 86 90 103 101 110 103 120 132 120
65 59 54 50 47 47 48 50 52 53 55 60 66 68 71 72 71 73 75 76 68 86 131 148 119 120 125 126 128 125 121 117 110 107 103 98 88 103 109 113 120 134 136
67 60 54 51 48 48 50 52 54 54 59 64 67 71 72 70 72 77 80 82 76 79 98 135 147 135 133 122 122 104 110 115 112 109 104 105 109 114 113 105 111 121 140
66 58 53 49 50 49 51 54 55 56 61 64 66 69 71 70 76 81 83 86 84 77 91 133 134 143 132 123 110 104 116 117 113 107 100 95 101 106 114 105 104 102 119
64 57 52 50 49 50 51 53 55 56 61 65 67 68 71 75 81 84 86 86 85 84 88 99 126 132 121 114 110 106 115 113 107 99 95 94 100 110 90 100 109 113 116
62 57 52 50 49 51 51 53 53 58 62 63 67 70 76 78 84 86 85 86 87 87 88 97 111 115 115 107 108 112 109 104 106 95 78 79 82 99 80 94 104 100 117
61 55 51 49 48 48 51 49 53 59 62 66 69 74 78 80 83 81 82 86 90 90 92 96 104 108 103 102 98 100 103 97 93 88 83 84 76 89 69 82 102 100 102
59 53 49 47 46 48 47 46 53 59 64 69 73 77 77 77 73 69 78 88 91 97 94 96 103 101 98 95 93 92 97 94 104 95 92 77 79 80 70 76 91 97 100
58 52 48 46 45 45 41 46 52 59 63 68 74 76 76 77 81 70 73 79 81 92 103 101 104 100 99 94 97 101 98 90 95 90 67 71 70 79 86 60 68 83 99
55 50 46 44 43 37 40 47 52 57 60 65 69 72 78 81 82 86 90 88 92 90 91 103 115 108 108 97 89 93 89 80 88 107 81 100 79 79 84 82 70 74 85
52 46 46 41 35 34 41 47 49 51 57 61 64 72 78 84 85 78 89 97 100 96 93 96 103 112 113 108 100 99 100 111 111 104 89 88 102 79 86 83 72 72 77
49 48 42 36 33 35 40 42 43 49 55 61 67 69 74 88 75 75 85 97 108 107 99 90 93 98 100 100 98 100 96 97 101 89 86 80 95 81 79 94 89 71 84
51 44 39 34 33 34 33 33 35 44 55 65 70 78 78 67 71 81 87 93 102 95 97 105 98 108 108 97 85 98 87 94 92 83 83 89 75 66 67 53 38 58 71
Wind_Direction_850mb
268 278 285 294 307 317 326 330 330 327 323 323 324 322 318 316 314 314 309 302 298 297 296 293 290 286 281 278 269 261 255 256 261 258 255 252 249 249 252 249 246 242 242
265 274 284 297 308 318 325 329 331 331 331 330 331 328 326 323 318 315 311 308 303 299 294 291 288 284 281 277 273 267 260 252 252 259 258 253 252 249 249 251 250 245 238
263 272 285 297 309 319 328 333 333 332 331 330 329 327 325 322 320 317 312 306 302 299 294 290 286 284 281 276 273 269 263 258 250 249 254 256 253 252 249 249 250 249 242
256 268 281 296 310 322 331 333 331 328 328 328 328 328 327 326 325 320 311 306 301 294 289 289 293 295 293 285 275 270 267 261 253 250 250 251 255 253 251 248 246 245 249
259 270 283 296 310 321 326 325 323 325 327 326 324 325 326 326 326 324 321 310 306 306 306 304 301 297 295 293 291 284 270 263 262 255 249 249 251 254 252 250 248 249 236
253 265 279 293 304 313 314 318 320 321 324 326 325 325 327 331 330 320 324 322 326 314 308 310 312 314 310 310 305 298 297 276 264 264 254 250 251 251 255 250 247 244 247
250 262 273 283 292 299 308 314 312 317 326 327 328 328 330 338 335 344 330 319 313 311 300 303 302 305 307 305 301 302 301 295 287 269 268 261 251 250 253 252 248 246 244
249 259 269 278 286 295 303 307 306 316 324 330 328 331 332 335 301 317 310 309 295 293 295 300 299 299 302 301 302 302 305 300 295 285 273 264 255 248 248 250 249 247 245
245 254 265 274 283 290 298 302 305 309 316 324 320 319 324 301 313 315 316 320 297 295 299 296 298 302 303 304 306 304 304 301 299 296 290 270 267 258 244 246 249 245 246
243 249 258 269 277 286 291 294 297 303 306 312 313 313 308 306 314 313 326 296 300 302 302 301 301 302 304 306 306 303 303 301 298 295 289 289 276 265 258 243 245 245 244
241 247 257 266 274 281 285 288 292 298 300 301 302 307 303 296 295 293 303 302 301 304 302 302 299 301 303 306 305 305 304 298 293 288 284 281 279 275 261 253 241 244 242
240 247 256 263 270 274 278 284 290 295 296 296 302 302 295 292 293 289 290 301 303 305 302 302 302 303 304 304 303 302 301 297 292 285 280 277 274 273 268 258 248 240 242
239 246 254 261 266 270 277 284 288 291 294 297 298 296 292 290 291 289 286 291 295 301 301 299 302 300 302 303 302 301 299 298 296 290 280 273 270 274 273 259 253 245 238
242 246 253 261 267 272 277 281 285 291 294 297 296 297 295 293 292 288 286 290 295 296 299 299 300 300 301 300 299 299 296 296 291 283 271 273 266 261 264 255 251 249 241
239 244 251 258 263 268 275 280 286 291 295 298 298 296 295 296 293 290 286 282 271 285 295 298 297 298 298 298 297 297 297 290 289 282 276 264 258 256 256 261 251 248 245
237 243 250 256 262 267 273 279 286 293 296 296 298 297 295 297 294 291 287 283 272 265 274 293 297 294 296 294 292 292 290 291 288 285 277 265 261 255 253 252 256 254 244
236 242 249 255 261 268 275 281 288 293 295 296 297 296 296 299 297 294 291 287 276 265 261 282 287 296 293 292 291 289 291 292 291 287 279 272 260 258 253 252 251 253 247
235 241 248 255 263 270 277 284 289 294 294 295 296 295 299 300 298 297 295 286 277 269 266 268 281 285 285 288 288 288 290 291 292 286 278 275 262 252 257 248 248 251 247
233 240 247 253 261 270 278 284 290 292 293 295 298 300 303 302 302 301 292 284 278 276 273 272 274 278 280 282 284 288 288 290 294 292 278 284 264 250 261 251 247 251 250
232 239 247 255 263 271 279 285 290 293 296 299 300 302 305 304 303 299 293 287 285 281 279 276 276 278 277 278 277 279 282 287 293 293 286 280 256 271 270 259 250 243 238
231 239 246 255 265 273 279 289 293 296 297 301 304 306 306 306 302 291 289 288 288 285 281 279 279 280 277 277 272 276 276 280 283 291 287 281 276 275 268 268 247 243 234
230 237 245 255 264 271 285 291 294 294 298 303 306 309 311 312 313 298 292 287 284 285 284 282 280 279 279 276 275 273 271 273 279 289 287 289 270 265 266 266 260 237 230
231 238 247 255 263 277 287 289 292 293 301 307 310 314 319 319 314 305 304 297 292 287 281 281 279 276 278 277 274 274 277 272 273 285 286 287 278 288 270 275 267 247 238
231 240 247 254 266 278 282 287 294 300 305 308 318 323 322 318 311 306 304 300 298 296 291 285 280 279 273 274 273 271 273 271 273 277 276 275 274 277 283 280 270 246 229
231 239 246 255 267 275 283 292 300 305 310 321 324 323 317 310 313 311 308 304 302 298 298 290 283 279 275 271 268 268 263 265 263 266 276 272 272 276 282 285 278 248 230
230 236 244 255 267 277 284 297 309 315 319 323 323 318 321 314 317 316 309 305 304 302 302 304 297 290 279 273 265 258 267 262 258 265 265 266 279 269 279 284 276 244 224